[[{"header":{"parameterUnit":"m.s-1","parameterCategory":1,"la1":30.2991,"la2":30.254,"lo1":-89.0895,"lo2":-89.0444,"dy":0.0017,"dx":0.0017,"nx":28,"ny":28,"refTime":"2025-01-30T09:00:00:Z","depth":0,"parameterNumber":2,"parameterNumberName":"U-component_of_WINDS"},"data":[0,0,0,0,0,0,0,0,0,0,0,0,0,0,0,0,0,0,0,0,0,0,0,0,0,0,0,0,0,0,0,0,0,0,0,0,0,0,0,0,0,0,0,0,0,0,0,0,0,0,0,0,0,0,0,0,0,0,2.4248,2.4248,0,2.4261,2.4261,2.4261,2.4215,2.4213,2.4212,2.4211,2.4223,2.4225,2.4227,0,0,0,0,0,0,0,0,0,0,0,0,0,2.4183,2.4185,2.4248,2.4248,2.4248,2.4261,2.4261,2.4261,2.4215,2.4213,2.4212,2.421,2.4223,2.4225,2.4227,0,0,0,0,0,0,0,0,0,0,0,0,0,2.4205,2.4185,2.4248,2.4227,2.4225,2.4261,2.4261,2.4261,2.4215,2.4213,2.4211,2.4209,2.4222,2.4225,2.4227,2.4284,0,0,2.4234,2.4236,0,0,0,0,0,0,0,0,2.4204,2.4208,2.423,2.4228,2.4226,2.4234,2.4243,2.4269,2.4216,2.4219,2.4211,2.4208,2.4229,2.423,2.4237,2.4284,2.4285,2.4235,2.4236,2.4237,2.4238,0,0,0,0,0,0,0,2.4203,2.4207,2.4253,2.423,2.4228,2.4217,2.4218,2.4248,2.4235,2.4219,2.4215,2.4218,2.4227,2.4235,2.4237,2.4285,2.4235,2.4237,2.4238,2.4239,2.4381,2.4383,0,0,0,0,0,0,2.4204,2.4206,2.4253,2.4253,2.421,2.422,2.422,2.4234,2.4235,2.4233,2.4219,2.4215,2.4232,2.4235,2.4238,2.4305,2.4237,2.4239,2.4241,2.4379,2.4382,2.4384,0,0,0,0,0,0,2.4203,2.4208,2.4252,2.4229,2.4233,2.4223,2.4238,2.4235,2.4243,2.4235,2.4233,2.423,2.423,2.4234,2.4273,2.4305,2.4241,2.4243,2.4376,2.438,2.4383,2.444,0,0,0,0,0,0,2.4201,2.4208,2.4229,2.423,2.4235,2.4287,2.424,2.4237,2.4247,2.4242,2.4244,2.4243,2.4229,2.427,2.4276,2.4307,2.4245,2.4373,2.4378,2.4382,2.4435,2.4445,2.4454,0,0,0,0,0,2.4199,2.4245,2.4231,2.4237,2.4261,2.4289,2.4292,2.4276,2.425,2.4272,2.4267,2.4243,2.4301,2.4274,2.428,2.4313,2.4371,2.4376,2.4381,2.4431,2.4443,2.4453,0,0,0,0,0,0,2.4248,2.4244,2.4229,2.4276,2.4283,2.4281,2.4308,2.4289,2.4303,2.4298,2.4277,2.4278,2.4321,2.4321,2.4291,2.4369,2.4331,2.4338,2.4367,2.4379,2.4388,2.4387,2.4247,0,0,0,0,0,2.4264,2.4287,2.4283,2.4325,2.4329,2.4318,2.433,2.4317,2.4323,2.4326,2.4324,2.4332,2.4352,2.4365,2.4383,2.4435,2.4436,2.4461,2.447,2.4478,2.4484,2.4513,2.4525,2.4401,2.4401,2.4401,0,0,2.4298,2.4299,2.4314,2.4335,2.4339,2.4364,2.4321,2.4348,2.4367,2.433,2.4367,2.4366,2.4373,2.442,2.444,2.4421,2.4518,2.4484,2.449,2.4492,2.4519,2.4531,2.4542,2.4405,2.4404,2.4403,0,0,2.4372,2.4375,2.4411,2.4416,2.4424,2.4416,2.4425,2.4427,2.4425,2.4462,2.4435,2.4457,2.4491,2.4498,2.4506,2.4585,2.4563,2.4591,2.4639,2.4667,2.4677,2.4686,2.4715,2.4725,2.4597,2.4597,2.4597,0,2.4413,2.4449,2.4432,2.4462,2.4472,2.4441,2.4478,2.4484,2.4496,2.4504,2.4483,2.4527,2.4529,2.4577,2.4597,2.4604,2.4614,2.4591,2.4677,2.4685,2.4693,2.4721,2.4732,2.4601,2.46,2.46,2.46,0,2.45,2.4526,2.4554,2.4568,2.4581,2.4614,2.4602,2.4618,2.4605,2.46,2.4639,2.4641,2.4659,2.4669,2.4656,2.4716,2.4705,2.4681,2.4642,2.4709,2.4734,2.4745,2.4606,2.4604,2.4603,2.4603,0,0,2.4604,2.4609,2.462,2.4627,2.4634,2.4653,2.4686,2.4704,2.4719,2.4729,2.4756,2.4787,2.4765,2.4774,2.4762,2.4787,2.4851,2.476,2.476,2.4777,2.4919,2.4937,2.495,2.4837,2.4839,2.484,2.4919,0,2.4677,2.4733,2.4719,2.4775,2.4799,2.4771,2.4799,2.4807,2.4804,2.4824,2.482,2.4843,2.4812,2.4818,2.4841,2.4838,2.4879,2.4832,2.4862,2.4864,2.4862,2.4963,2.4982,2.5055,2.4928,2.493,2.4931,0,2.477,2.4786,2.4844,2.4848,2.4858,2.4884,2.4901,2.492,2.4929,2.4925,2.4936,2.4919,2.4951,2.4913,2.4958,2.4927,2.4939,2.4939,2.4942,2.4944,2.4901,2.4968,2.5078,2.509,2.4947,2.4945,2.4944,0,2.4842,2.4877,2.4916,2.4923,2.4929,2.4948,2.4951,2.4958,2.497,2.4985,2.4993,2.5012,2.5022,2.5037,2.5025,2.4998,2.5073,2.5033,2.5071,2.5071,2.5087,2.5086,2.5201,2.5095,2.5094,2.5094,2.5094,0,2.4926,2.4962,2.4949,2.4973,2.5014,2.4998,2.5039,2.5039,2.5046,2.507,2.5046,2.507,2.5053,2.5075,2.5066,2.5106,2.511,2.5108,2.5106,2.5111,2.5111,2.5118,2.5112,2.5097,2.5096,2.5096,2.5095,0,2.5012,2.5004,2.5045,2.5048,2.505,2.508,2.5083,2.5106,2.5101,2.5133,2.5139,2.5132,2.5157,2.5147,2.5173,2.5168,2.5218,2.5209,2.5216,2.5213,2.5252,2.5248,2.5375,2.5391,2.5274,2.5275,2.5276,0,2.5066,2.5094,2.51,2.5115,2.5121,2.5145,2.5158,2.5144,2.5159,2.5172,2.5194,2.5217,2.5234,2.5276,2.5273,2.5294,2.5285,2.5328,2.5287,2.5292,2.5286,2.5285,2.5288,2.5336,2.5337,2.5338,2.5339,0,2.5163,2.5158,2.5178,2.5198,2.5215,2.523,2.5242,2.5256,2.5242,2.5261,2.5286,2.53,2.5328,2.5352,2.537,2.5374,2.5355,2.5352,2.5362,2.5367,2.537,2.537,2.5238,2.5349,2.5348,2.5347,2.5347,2.5346,2.5235,2.5259,2.5268,2.5292,2.53,2.5313,2.5335,2.5334,2.5356,2.5378,2.5368,2.5398,2.5407,2.5431,2.5437,2.5461,2.5444,2.5458,2.5461,2.5465,2.5471,2.5367,2.5464,2.5463,2.5463,2.5463,2.5463,0,2.5332,2.5336,2.5359,2.5378,2.5397,2.5378,2.5391,2.5409,2.5436,2.5446,2.5464,2.5495,2.5518,2.5518,2.554,2.5559,2.5551,2.5565,2.5564,2.5565,2.5484,2.5473,2.5572,2.5572,2.5571,2.5571,2.5571,2.5571,2.5384,2.5424,2.5421,2.5466,2.547,2.55,2.5509,2.5521,2.553,2.5565,2.5585,2.5585,2.5591,2.5614,2.5635,2.5634,2.5643,2.5661,2.5657,2.5581,2.5571,2.556,2.5551,2.5663,2.5663,2.5737,2.5737,2.5738]},{"header":{"parameterUnit":"m.s-1","parameterCategory":1,"la1":30.2991,"la2":30.254,"lo1":-89.0895,"lo2":-89.0444,"dy":0.0017,"dx":0.0017,"nx":28,"ny":28,"refTime":"2025-01-30T09:00:00:Z","depth":0,"parameterNumber":3,"parameterNumberName":"V-component_of_WINDS"},"data":[0,0,0,0,0,0,0,0,0,0,0,0,0,0,0,0,0,0,0,0,0,0,0,0,0,0,0,0,0,0,0,0,0,0,0,0,0,0,0,0,0,0,0,0,0,0,0,0,0,0,0,0,0,0,0,0,0,0,-2.3931,-2.3932,0,-2.4029,-2.403,-2.4031,-2.4065,-2.4065,-2.4065,-2.4064,-2.4163,-2.4166,-2.4169,0,0,0,0,0,0,0,0,0,0,0,0,0,-2.3773,-2.3775,-2.3931,-2.3932,-2.3933,-2.4029,-2.403,-2.4032,-2.4065,-2.4065,-2.4064,-2.4064,-2.4162,-2.4166,-2.417,0,0,0,0,0,0,0,0,0,0,0,0,0,-2.3853,-2.3776,-2.393,-2.3961,-2.3965,-2.4029,-2.403,-2.4032,-2.4065,-2.4065,-2.4064,-2.4064,-2.4161,-2.4166,-2.417,-2.4209,0,0,-2.4184,-2.4186,0,0,0,0,0,0,0,0,-2.3848,-2.3859,-2.3956,-2.3959,-2.3964,-2.4034,-2.4011,-2.4091,-2.4066,-2.4027,-2.4064,-2.4064,-2.4121,-2.4129,-2.4148,-2.4214,-2.4218,-2.4184,-2.4187,-2.4189,-2.419,0,0,0,0,0,0,0,-2.3843,-2.3855,-2.3969,-2.3957,-2.3962,-2.3971,-2.3982,-2.4026,-2.4076,-2.4031,-2.4033,-2.4045,-2.4123,-2.4144,-2.4151,-2.422,-2.4184,-2.4188,-2.4191,-2.4193,-2.4324,-2.4325,0,0,0,0,0,0,-2.3832,-2.385,-2.3966,-2.3972,-2.3904,-2.3974,-2.3986,-2.4012,-2.4076,-2.4085,-2.4045,-2.4046,-2.4136,-2.4146,-2.4154,-2.4205,-2.4189,-2.4193,-2.4196,-2.4323,-2.4324,-2.4325,0,0,0,0,0,0,-2.3829,-2.3842,-2.3962,-2.3912,-2.3928,-2.3977,-2.4006,-2.4014,-2.4035,-2.4087,-2.4096,-2.4057,-2.4136,-2.4148,-2.4196,-2.4209,-2.4195,-2.4199,-2.4322,-2.4323,-2.4324,-2.4306,0,0,0,0,0,0,-2.3824,-2.3841,-2.3856,-2.3912,-2.3931,-2.4002,-2.4007,-2.4017,-2.4043,-2.4045,-2.41,-2.4109,-2.4137,-2.4189,-2.42,-2.4215,-2.4203,-2.4321,-2.4323,-2.4324,-2.4306,-2.4307,-2.4308,0,0,0,0,0,-2.3818,-2.3846,-2.3856,-2.387,-2.395,-2.4003,-2.4013,-2.4045,-2.4044,-2.406,-2.4093,-2.4107,-2.4206,-2.4194,-2.4207,-2.4223,-2.432,-2.4322,-2.4324,-2.4306,-2.4307,-2.4307,0,0,0,0,0,0,-2.3789,-2.3854,-2.3866,-2.3913,-2.3952,-2.4008,-2.4029,-2.4045,-2.4085,-2.4085,-2.4123,-2.4135,-2.418,-2.4206,-2.4191,-2.4265,-2.4264,-2.4269,-2.4246,-2.4247,-2.4248,-2.424,-2.4206,0,0,0,0,0,-2.3789,-2.3825,-2.388,-2.3916,-2.3936,-2.3979,-2.4003,-2.4024,-2.4066,-2.4083,-2.4119,-2.4159,-2.4199,-2.4225,-2.4264,-2.431,-2.4323,-2.4328,-2.4329,-2.4329,-2.4333,-2.436,-2.4363,-2.4331,-2.4331,-2.4331,0,0,-2.3787,-2.3827,-2.3848,-2.3912,-2.3945,-2.3982,-2.3992,-2.4031,-2.406,-2.4088,-2.4136,-2.4164,-2.4211,-2.4259,-2.4281,-2.4282,-2.4345,-2.4332,-2.4332,-2.4335,-2.4362,-2.4365,-2.4368,-2.4332,-2.4332,-2.4331,0,0,-2.3804,-2.3838,-2.3872,-2.3905,-2.3955,-2.3984,-2.3992,-2.4047,-2.4067,-2.4115,-2.4138,-2.4172,-2.424,-2.4273,-2.4299,-2.433,-2.4345,-2.4342,-2.4346,-2.4372,-2.4375,-2.4377,-2.4389,-2.4392,-2.4346,-2.4346,-2.4346,0,-2.3796,-2.3853,-2.3888,-2.3926,-2.3954,-2.3983,-2.4018,-2.4048,-2.4108,-2.4127,-2.4128,-2.4215,-2.4249,-2.4304,-2.4312,-2.4332,-2.4343,-2.4336,-2.4372,-2.4374,-2.4377,-2.4389,-2.4393,-2.4345,-2.4345,-2.4345,-2.4345,0,-2.3841,-2.3881,-2.3903,-2.3961,-2.3991,-2.4028,-2.4068,-2.4095,-2.4114,-2.4143,-2.4193,-2.4235,-2.4284,-2.4299,-2.4318,-2.4358,-2.4357,-2.4364,-2.4364,-2.4379,-2.439,-2.4395,-2.4344,-2.4344,-2.4344,-2.4345,0,0,-2.3841,-2.3919,-2.3926,-2.3953,-2.4011,-2.4043,-2.4082,-2.4131,-2.4153,-2.4194,-2.4227,-2.4286,-2.4293,-2.4322,-2.4345,-2.4368,-2.4391,-2.4373,-2.4374,-2.4375,-2.4439,-2.4433,-2.4437,-2.4402,-2.4403,-2.4404,-2.4435,0,-2.3865,-2.3935,-2.3968,-2.4023,-2.4061,-2.409,-2.4124,-2.4163,-2.4192,-2.4228,-2.426,-2.4301,-2.4307,-2.4325,-2.4349,-2.4383,-2.4405,-2.4382,-2.4433,-2.4435,-2.442,-2.4443,-2.4437,-2.4465,-2.444,-2.444,-2.4441,0,-2.3902,-2.3944,-2.4003,-2.4058,-2.4075,-2.4104,-2.4153,-2.4187,-2.4233,-2.4252,-2.4286,-2.4309,-2.4351,-2.4349,-2.4407,-2.4391,-2.4415,-2.4435,-2.4437,-2.4442,-2.4438,-2.4449,-2.4474,-2.4478,-2.4448,-2.4448,-2.4447,0,-2.3896,-2.3967,-2.4012,-2.4034,-2.4099,-2.412,-2.4148,-2.4193,-2.4221,-2.4264,-2.4282,-2.4329,-2.4354,-2.439,-2.4424,-2.4419,-2.448,-2.4481,-2.4498,-2.4497,-2.4508,-2.4507,-2.4537,-2.4524,-2.4524,-2.4524,-2.4524,0,-2.3919,-2.3954,-2.401,-2.4038,-2.4079,-2.4117,-2.4156,-2.4187,-2.4227,-2.4261,-2.4289,-2.4321,-2.4365,-2.4403,-2.4431,-2.4476,-2.4487,-2.4504,-2.451,-2.4501,-2.4499,-2.4516,-2.4515,-2.4525,-2.4525,-2.4524,-2.4524,0,-2.3919,-2.3958,-2.4009,-2.4067,-2.4082,-2.411,-2.416,-2.4188,-2.4219,-2.4262,-2.4274,-2.4323,-2.4368,-2.4407,-2.4467,-2.4486,-2.4532,-2.454,-2.4517,-2.452,-2.4535,-2.4533,-2.4577,-2.4585,-2.4566,-2.4567,-2.4567,0,-2.3931,-2.3959,-2.402,-2.4045,-2.4073,-2.4113,-2.4142,-2.4181,-2.421,-2.4266,-2.4288,-2.4336,-2.4376,-2.4448,-2.4488,-2.4534,-2.4544,-2.4556,-2.4551,-2.4541,-2.4544,-2.4542,-2.4545,-2.4556,-2.4556,-2.4556,-2.4556,0,-2.3948,-2.3966,-2.4007,-2.4054,-2.4088,-2.4128,-2.4168,-2.4187,-2.4234,-2.4265,-2.4313,-2.4344,-2.4406,-2.4454,-2.4505,-2.4534,-2.4553,-2.4558,-2.4564,-2.4554,-2.4539,-2.4548,-2.4517,-2.4556,-2.4556,-2.4556,-2.4556,-2.4556,-2.3954,-2.3981,-2.4028,-2.4073,-2.4108,-2.4145,-2.4175,-2.421,-2.425,-2.4304,-2.4325,-2.4374,-2.4421,-2.4491,-2.4521,-2.456,-2.4562,-2.4571,-2.4574,-2.4575,-2.4574,-2.4534,-2.4569,-2.4569,-2.4569,-2.4569,-2.4569,0,-2.3973,-2.4006,-2.4046,-2.4102,-2.4137,-2.4153,-2.4199,-2.4227,-2.427,-2.4312,-2.4352,-2.4407,-2.4454,-2.4498,-2.4547,-2.457,-2.458,-2.4582,-2.458,-2.4587,-2.4569,-2.4558,-2.4573,-2.4573,-2.4573,-2.4573,-2.4573,-2.4573,-2.3987,-2.4033,-2.4057,-2.4121,-2.4154,-2.4202,-2.4226,-2.4261,-2.4295,-2.4356,-2.4395,-2.4424,-2.4468,-2.4521,-2.4564,-2.4576,-2.4593,-2.4592,-2.4606,-2.4589,-2.4588,-2.4587,-2.4577,-2.4596,-2.4596,-2.4621,-2.4622,-2.4622]}]]